Deville, LA

3:17 AM CDT on August 28, 2016 (GMT -0500)
Alexandria Esler Regional

Weather History for KESF - September, 2013

Change the Weather History Date:

Wednesday, September 11, 2013

  Actual Average Record
Temperature  
Mean Temperature 83 °F -  
Max Temperature 96 °F 86 °F 99 °F (2002)
Min Temperature 71 °F 67 °F 54 °F (1976)
Cooling Degree Days 18    
Growing Degree Days 33 (Base 50)    
Moisture  
Dew Point 69 °F    
Average Humidity 72    
Maximum Humidity 94    
Minimum Humidity 37    
Precipitation  
Precipitation 0.00 in - - ()
Sea Level Pressure  
Sea Level Pressure 30.08 in    
Wind  
Wind Speed 1 mph (East)    
Max Wind Speed 8 mph    
Max Gust Speed 18 mph    
Visibility 7 miles    
Events      
Averages and records for this station are not official NWS values.
T = Trace of Precipitation, MM = Missing Value Source: NWS Daily Summary

Daily Weather History Graph

Daily Weather History Graph

Search for Another Location

Airport or City:

Trip Planner

Search our weather history database for the weather conditions in past years. The results will help you decide how hot, cold, wet, or windy it might be!

Date:

Astronomy

Sep. 11, 2013 Rise Set
Actual Time 6:51 AM CDT 7:19 PM CDT
Civil Twilight 6:26 AM CDT 7:44 PM CDT
Nautical Twilight 5:58 AM CDT 8:12 PM CDT
Astronomical Twilight 5:28 AM CDT 8:41 PM CDT
Moon 12:55 PM CDT (9/11) 11:40 PM CDT (9/11)
Length of Visible Light 13h 17m
Length of Day
12h 28m
Waxing Crescent, 39% of the Moon is Illuminated
Sep 11
Waxing Crescent
Sep 12
First Quarter
Sep 19
Full
Sep 26
Last Quarter
Oct 4
New

Hourly Weather History & Observations

Time (CDT) Temp. Heat Index Dew Point Humidity Pressure Visibility Wind Dir Wind Speed Gust Speed Precip Events Conditions
12:53 AM 75.0 °F - 71.1 °F 87% 30.09 in 7.0 mi Calm Calm - N/A   Scattered Clouds
1:53 AM 73.9 °F - 70.0 °F 87% 30.09 in 6.0 mi Calm Calm - N/A   Clear
2:53 AM 73.0 °F - 70.0 °F 90% 30.08 in 5.0 mi Calm Calm - N/A   Clear
3:53 AM 73.0 °F - 70.0 °F 90% 30.08 in 4.0 mi Calm Calm - N/A   Clear
4:53 AM 72.0 °F - 69.1 °F 91% 30.08 in 3.0 mi Calm Calm - N/A   Clear
4:57 AM 71.6 °F - 69.8 °F 94% 30.09 in 1.8 mi Calm Calm - N/A   Clear
5:09 AM 71.6 °F - 69.8 °F 94% 30.09 in 3.0 mi Calm Calm - N/A   Scattered Clouds
5:53 AM 72.0 °F - 69.1 °F 91% 30.10 in 4.0 mi Calm Calm - N/A   Scattered Clouds
6:53 AM 71.1 °F - 69.1 °F 93% 30.11 in 3.0 mi Calm Calm - N/A   Scattered Clouds
7:02 AM 71.6 °F - 68.0 °F 88% 30.11 in 2.5 mi Calm Calm - N/A   Partly Cloudy
7:29 AM 71.6 °F - 69.8 °F 94% 30.12 in 3.0 mi Calm Calm - N/A   Scattered Clouds
7:53 AM 73.9 °F - 70.0 °F 87% 30.12 in 3.0 mi Calm Calm - N/A   Mostly Cloudy
8:53 AM 79.0 °F - 73.0 °F 82% 30.12 in 7.0 mi East 4.6 mph - N/A   Scattered Clouds
9:53 AM 84.9 °F 92.1 °F 73.9 °F 69% 30.12 in 10.0 mi ENE 3.5 mph - N/A   Clear
10:53 AM 89.1 °F 94.1 °F 70.0 °F 53% 30.12 in 10.0 mi East 6.9 mph - N/A   Clear
11:53 AM 91.9 °F 95.4 °F 66.9 °F 44% 30.12 in 10.0 mi East 3.5 mph - N/A   Scattered Clouds
12:53 PM 93.0 °F 95.0 °F 64.9 °F 39% 30.11 in 10.0 mi Variable 3.5 mph - N/A   Clear
1:53 PM 93.9 °F 96.1 °F 64.9 °F 38% 30.08 in 10.0 mi ESE 8.1 mph 18.4 mph N/A   Clear
2:53 PM 95.0 °F 97.4 °F 64.9 °F 37% 30.06 in 10.0 mi Calm Calm - N/A   Clear
3:53 PM 95.0 °F 97.4 °F 64.9 °F 37% 30.04 in 10.0 mi Variable 4.6 mph - N/A   Partly Cloudy
4:53 PM 93.0 °F 95.9 °F 66.0 °F 41% 30.03 in 10.0 mi NE 5.8 mph - N/A   Clear
5:53 PM 93.0 °F 95.9 °F 66.0 °F 41% 30.02 in 10.0 mi ESE 8.1 mph - N/A   Clear
6:53 PM 90.0 °F 91.7 °F 64.9 °F 43% 30.01 in 10.0 mi ESE 6.9 mph - N/A   Partly Cloudy
7:53 PM 80.1 °F 83.2 °F 70.0 °F 71% 30.02 in 10.0 mi Calm Calm - N/A   Clear
8:53 PM 77.0 °F - 69.1 °F 76% 30.04 in 10.0 mi Calm Calm - N/A   Clear
9:53 PM 75.9 °F - 69.1 °F 79% 30.05 in 10.0 mi Calm Calm - N/A   Clear
10:53 PM 73.9 °F - 69.1 °F 85% 30.06 in 10.0 mi Calm Calm - N/A   Clear
11:53 PM 73.0 °F - 68.0 °F 84% 30.05 in 10.0 mi Calm Calm - N/A   Clear